Location: Newark
(34.0000°S, 64.0000°W)
Time: 22:35:58
(UTC+00:00)

Hubble Space Telescope - Visible Passes

Search period start: 05 December 2019 00:00
Search period end: 15 December 2019 00:00
Orbit: 536 x 540 km, 28.5° (Epoch: 05 December)

Date Brightness Start Highest point End Pass type
(mag) Time Alt. Az. Time Alt. Az. Time Alt. Az.
05 Dec 2.8 08:08:39 11° NNW 08:09:13 11° NNW 08:10:22 10° N visible
08 Dec 2.6 00:51:04 10° NNW 00:52:44 17° N 00:52:44 17° N visible
09 Dec 1.9 00:40:09 10° NW 00:43:31 24° NNE 00:43:33 24° NNE visible
10 Dec 1.8 00:29:18 10° NW 00:32:51 27° NNE 00:34:08 23° NE visible
11 Dec 1.7 00:18:31 10° NW 00:22:11 30° N 00:24:29 18° ENE visible
11 Dec 3.2 01:59:10 10° WNW 01:59:51 14° WNW 01:59:51 14° WNW visible
12 Dec 1.6 00:07:46 10° WNW 00:11:32 33° N 00:14:42 13° ENE visible
12 Dec 2.7 01:48:33 10° WNW 01:50:02 20° WNW 01:50:02 20° WNW visible
12 Dec 1.5 23:57:04 10° WNW 00:00:53 36° N 00:04:43 10° ENE visible
13 Dec 2.3 01:37:57 10° WNW 01:40:06 25° NW 01:40:06 25° NW visible
13 Dec 1.5 23:46:23 10° WNW 23:50:15 37° N 23:54:06 10° ENE visible
14 Dec 2.1 01:27:23 10° WNW 01:30:04 28° NW 01:30:04 28° NW visible
